Weather History for Kayseri, Turkey

Change the Weather History Date:

Sunday, January 20, 2013

  Actual Average Record
Temperature  
Mean Temperature 30 °F -  
Max Temperature 41 °F 40 °F 55 °F (2014)
Min Temperature 20 °F 21 °F -4 °F (2012)
Degree Days  
Heating Degree Days 34    
Moisture  
Dew Point 27 °F    
Average Humidity 85    
Maximum Humidity 100    
Minimum Humidity 57    
Precipitation  
Precipitation 0.00 in - - ()
Sea Level Pressure  
Sea Level Pressure 30.06 in    
Wind  
Wind Speed 1 mph ()    
Max Wind Speed 6 mph    
Max Gust Speed -    
Visibility 4.7 miles    
Events Fog    
Averages and records for this station are not official NWS values.
T = Trace of Precipitation, MM = Missing Value Source: Averaged Metar Reports

Daily Weather History Graph

Daily Weather History Graph

Search for Another Location

Airport:

Trip Planner

Search our weather history database for the weather conditions in past years. The results will help you decide how hot, cold, wet, or windy it might be!

Date:

Astronomy

Jan. 20, 2013 Rise Set
Actual Time 6:52 AM EET 4:45 PM EET
Civil Twilight 6:23 AM EET 5:14 PM EET
Nautical Twilight 5:51 AM EET 5:47 PM EET
Astronomical Twilight 5:19 AM EET 6:18 PM EET
Moon 11:34 AM EET (1/20) 1:05 AM EET (1/20)
Length of Visible Light 10h 51m
Length of Day
9h 53m
Waxing Gibbous, 63% of the Moon is Illuminated
Jan 20
Waxing Gibbous
Jan 27
Full
Feb 3
Last Quarter
Feb 10
New
Feb 17
First Quarter

Hourly Weather History & Observations

Time (EET) Temp. Windchill Dew Point Humidity Pressure Visibility Wind Dir Wind Speed Gust Speed Precip Events Conditions
12:20 AM 32.0 °F - 32.0 °F 100% 29.98 in - Calm Calm - N/A   Overcast
12:50 AM 32.0 °F - 32.0 °F 100% 29.98 in 2.5 mi Calm Calm - N/A   Mostly Cloudy
1:20 AM 32.0 °F - 30.2 °F 93% 29.98 in - ENE 1.2 mph - N/A Fog Light Freezing Fog
1:50 AM 30.2 °F - 30.2 °F 100% 29.98 in 0.2 mi Calm Calm - N/A Fog Light Freezing Fog
2:00 AM 31 °F - 29 °F 91%  in 0 mi Calm Calm - - Fog Heavy Fog
2:20 AM 28.4 °F - 28.4 °F 100% 29.98 in 0.2 mi Variable 1.2 mph - N/A Fog Light Freezing Fog
2:50 AM 28.4 °F - 26.6 °F 93% 29.98 in 0.2 mi Calm Calm - N/A Fog Light Freezing Fog
3:20 AM 26.6 °F - 24.8 °F 93% 29.98 in 0.2 mi Calm Calm - N/A Fog Light Freezing Fog
3:50 AM 24.8 °F - 23.0 °F 93% 29.98 in 0.3 mi Calm Calm - N/A Fog Light Freezing Fog
4:20 AM 24.8 °F 20.5 °F 24.8 °F 100% 29.98 in - North 3.5 mph - N/A Fog Light Freezing Fog
4:50 AM 26.6 °F 20.0 °F 24.8 °F 93% 30.01 in 0.3 mi NNE 5.8 mph - N/A Fog Light Freezing Fog
5:20 AM 24.8 °F - 23.0 °F 93% 30.01 in 0.4 mi NNE 2.3 mph - N/A Fog Light Freezing Fog
5:50 AM 23.0 °F - 21.2 °F 93% 30.01 in 0.7 mi NE 2.3 mph - N/A Fog Patches of Fog
6:20 AM 21.2 °F - 19.4 °F 93% 30.04 in 0.6 mi Variable 1.2 mph - N/A Fog Patches of Fog
6:50 AM 21.2 °F - 19.4 °F 93% 30.04 in 2.5 mi Calm Calm - N/A   Mostly Cloudy
7:20 AM 23.0 °F - 21.2 °F 93% 30.06 in - Calm Calm - N/A   Mostly Cloudy
7:50 AM 23.0 °F - 21.2 °F 93% 30.06 in - Calm Calm - N/A   Mostly Cloudy
8:00 AM 22 °F - 22 °F 100%  in 3 mi Calm Calm - -   Mist
8:20 AM 24.8 °F - 23.0 °F 93% 30.06 in - Variable 1.2 mph - N/A   Partly Cloudy
8:50 AM 24.8 °F 19.1 °F 23.0 °F 93% 30.09 in 5.0 mi NNE 4.6 mph - N/A   Partly Cloudy
9:20 AM 26.6 °F - 24.8 °F 93% 30.09 in 5.6 mi Calm Calm - N/A   Partly Cloudy
9:50 AM 28.4 °F - 26.6 °F 93% 30.09 in 6.2 mi NNE 1.2 mph - N/A   Partly Cloudy
10:20 AM 30.2 °F - 28.4 °F 93% 30.09 in 6.2 mi NE 2.3 mph - N/A   Scattered Clouds
10:50 AM 30.2 °F - 28.4 °F 93% 30.06 in 6.2 mi North 2.3 mph - N/A   Scattered Clouds
11:20 AM 32.0 °F - 30.2 °F 93% 30.06 in 6.2 mi North 2.3 mph - N/A   Scattered Clouds
11:50 AM 33.8 °F - 30.2 °F 87% 30.06 in 6.2 mi Variable 2.3 mph - N/A   Scattered Clouds
12:20 PM 33.8 °F 29.6 °F 30.2 °F 87% 30.06 in 6.2 mi NNE 4.6 mph - N/A   Scattered Clouds
12:50 PM 35.6 °F - 32.0 °F 87% 30.04 in 6.2 mi Variable 2.3 mph - N/A   Scattered Clouds
1:20 PM 37.4 °F 33.8 °F 32.0 °F 81% 30.04 in 6.2 mi NNE 4.6 mph - N/A   Scattered Clouds
1:50 PM 39.2 °F 37.0 °F 30.2 °F 70% 30.04 in 6.2 mi NNE 3.5 mph - N/A   Scattered Clouds
2:00 PM 39 °F - 31 °F 63%  in 12 mi NNE 3.5 mph - -   Scattered Clouds
2:20 PM 41.0 °F - 32.0 °F 70% 30.04 in 6.2 mi Variable 1.2 mph - N/A   Scattered Clouds
2:50 PM 41.0 °F - 30.2 °F 65% 30.04 in 6.2 mi Variable 2.3 mph - N/A   Scattered Clouds
3:20 PM 41.0 °F - 28.4 °F 61% 30.04 in 6.2 mi Variable 1.2 mph - N/A   Partly Cloudy
3:50 PM 41.0 °F - 26.6 °F 57% 30.04 in 6.2 mi SE 1.2 mph - N/A   Partly Cloudy
4:20 PM 39.2 °F - 26.6 °F 61% 30.04 in 6.2 mi Variable 2.3 mph - N/A   Partly Cloudy
4:50 PM 37.4 °F - 26.6 °F 65% 30.06 in 6.2 mi Calm Calm - N/A   Partly Cloudy
5:20 PM 32.0 °F - 24.8 °F 75% 30.06 in 6.2 mi Variable 2.3 mph - N/A   Partly Cloudy
5:50 PM 33.8 °F - 26.6 °F 75% 30.06 in 6.2 mi Variable 1.2 mph - N/A   Partly Cloudy
6:20 PM 32.0 °F - 26.6 °F 80% 30.09 in 6.2 mi Calm Calm - N/A   Partly Cloudy
6:50 PM 35.6 °F - 24.8 °F 65% 30.09 in 5.0 mi Variable 2.3 mph - N/A   Scattered Clouds
7:20 PM 32.0 °F 28.7 °F 26.6 °F 80% 30.09 in 5.0 mi NE 3.5 mph - N/A   Scattered Clouds
7:50 PM 32.0 °F - 24.8 °F 75% 30.12 in 6.2 mi Variable 2.3 mph - N/A   Scattered Clouds
8:00 PM 33 °F - 24 °F 60%  in 6 mi East 2.3 mph - -   Mist
8:20 PM 30.2 °F - 24.8 °F 80% 30.12 in 6.2 mi Variable 1.2 mph - N/A   Scattered Clouds
8:50 PM 30.2 °F 26.7 °F 26.6 °F 86% 30.12 in 6.2 mi NE 3.5 mph - N/A   Scattered Clouds
9:20 PM 32.0 °F - 28.4 °F 87% 30.12 in 6.2 mi NE 1.2 mph - N/A   Mostly Cloudy
9:50 PM 32.0 °F 28.7 °F 28.4 °F 87% 30.12 in 6.2 mi North 3.5 mph - N/A   Mostly Cloudy
10:20 PM 32.0 °F - 28.4 °F 87% 30.15 in 6.2 mi Calm Calm - N/A   Mostly Cloudy
10:50 PM 32.0 °F - 28.4 °F 87% 30.15 in 6.2 mi Variable 1.2 mph - N/A   Mostly Cloudy
11:20 PM 32.0 °F - 28.4 °F 87% 30.15 in 6.2 mi Variable 1.2 mph - N/A   Mostly Cloudy
11:50 PM 32.0 °F - 28.4 °F 87% 30.12 in 6.2 mi Calm Calm - N/A   Mostly Cloudy